Sant Sadurní d´Osormort





Hora UTC 09:25
Temperatura 2.7 ºC
Humedad 95.0 %
Presión 1027.3 hPa
Pluja 0.2 mm
Velocidad viento 0.0 km/h
Dirección viento N

Datos diarios 2020-02-20



Hora UTC (invierno +1h; verano +2h)
Temperatura (ºC) Humedad (%) Presión (hPa) Velocidad viento (km/h) Precipitación (mm)
Hora UTC Aire Humedad Presión Vel. Dir. Vel. Max Dir. Intent. máx 5 min.
00:05 -1.6 91.0 1029.0 0.0 WNW 0.0 0.0
00:10 -1.6 91.0 1029.0 0.0 WNW 0.0 0.0
00:15 -1.7 91.0 1029.0 0.0 WNW 0.0 0.0
00:20 -1.8 91.0 1028.8 0.0 WNW 0.0 0.0
00:25 -1.8 92.0 1028.7 0.0 WNW 0.0 0.0
00:30 -1.9 92.0 1028.8 0.0 WNW 0.0 0.0
00:35 -1.9 92.0 1028.8 0.0 WNW 0.0 0.0
00:40 -1.9 92.0 1028.8 0.0 WNW 0.0 0.0
00:45 -1.9 92.0 1028.8 0.0 WNW 0.0 0.0
00:50 -2.0 92.0 1028.8 0.0 WNW 0.0 0.0
00:55 -2.1 92.0 1028.7 0.0 WNW 0.0 0.0
01:00 -2.1 92.0 1028.8 0.0 WNW 0.0 0.0
01:05 -2.2 92.0 1028.7 0.0 WNW 0.0 0.0
01:10 -2.2 92.0 1028.8 0.0 WNW 0.0 0.0
01:15 -2.3 92.0 1028.6 0.0 WNW 0.0 0.0
01:20 -2.3 92.0 1028.5 0.0 WNW 0.0 0.0
01:25 -2.2 92.0 1028.4 0.0 WNW 0.0 0.0
01:30 -2.1 93.0 1028.4 0.0 WNW 0.0 0.0
01:35 -2.1 92.0 1028.3 0.0 WNW 0.0 0.0
01:40 -2.2 92.0 1028.2 0.0 WNW 0.0 0.0
01:45 -2.3 92.0 1028.2 0.0 WNW 0.0 0.0
01:50 -2.3 92.0 1028.2 0.0 WNW 0.0 0.0
01:55 -2.4 92.0 1028.2 0.0 WNW 0.0 0.0
02:00 -2.5 92.0 1028.1 0.0 WNW 0.0 0.0
02:05 -2.6 92.0 1028.0 0.0 WNW 0.0 0.0
02:10 -2.7 92.0 1028.0 0.0 WNW 0.0 0.0
02:15 -2.6 92.0 1027.9 0.0 WNW 0.0 0.0
02:20 -2.6 93.0 1027.9 0.0 WNW 0.0 0.0
02:25 -2.6 92.0 1027.9 0.0 WNW 0.0 0.0
02:30 -2.7 92.0 1027.9 0.0 WNW 0.0 0.0
02:35 -2.7 92.0 1027.8 0.0 WNW 0.0 0.0
02:40 -2.8 92.0 1027.8 0.0 WNW 0.0 0.0
02:45 -2.8 92.0 1027.8 0.0 WNW 0.0 0.0
02:50 -2.8 92.0 1027.8 0.0 WNW 0.0 0.0
02:55 -2.8 92.0 1027.7 0.0 WNW 0.0 0.0
03:00 -2.9 92.0 1027.7 0.0 WNW 0.0 0.0
03:05 -2.9 92.0 1027.6 0.0 WNW 0.0 0.0
03:10 -2.9 92.0 1027.5 0.0 WNW 0.0 0.0
03:15 -3.0 92.0 1027.4 0.0 WNW 0.0 0.0
03:20 -3.1 92.0 1027.3 0.0 WNW 0.0 0.0
03:25 -3.2 92.0 1027.4 0.0 WNW 0.0 0.0
03:30 -3.2 92.0 1027.3 0.0 WNW 0.0 0.0
03:35 -3.2 92.0 1027.3 0.0 WNW 0.0 0.0
03:40 -3.2 92.0 1027.4 0.0 WNW 0.0 0.0
03:45 -3.3 92.0 1027.4 0.0 WNW 0.0 0.0
03:50 -3.3 93.0 1027.3 0.0 WNW 0.0 0.0
03:55 -3.3 92.0 1027.3 0.0 WNW 0.0 0.0
04:00 -3.3 93.0 1027.2 0.0 WNW 0.0 0.0
04:05 -3.3 92.0 1027.2 0.0 WNW 0.0 0.0
04:10 -3.4 92.0 1027.2 0.0 WNW 0.0 0.0
04:15 -3.5 92.0 1027.2 0.0 WNW 0.0 0.0
04:20 -3.5 92.0 1027.2 0.0 WNW 0.0 0.0
04:25 -3.6 92.0 1027.2 0.0 WNW 0.0 0.0
04:30 -3.7 92.0 1027.2 0.0 WNW 0.0 0.0
04:35 -3.7 92.0 1027.2 0.0 WNW 0.0 0.0
04:40 -3.7 92.0 1027.2 0.0 WNW 0.0 0.0
04:45 -3.7 93.0 1027.2 0.0 WNW 0.0 0.0
04:50 -3.7 93.0 1027.2 0.0 WNW 0.0 0.0
04:55 -3.7 93.0 1027.2 0.0 WNW 0.0 0.0
05:00 -3.7 92.0 1027.2 0.0 WNW 0.0 0.0
05:05 -3.8 92.0 1027.2 0.0 WNW 0.0 0.0
05:10 -3.9 92.0 1027.1 0.0 WNW 0.0 0.0
05:15 -3.9 93.0 1027.1 0.0 WNW 0.0 0.0
05:20 -4.0 93.0 1027.2 0.0 WNW 0.0 0.0
05:25 -4.0 93.0 1027.2 0.0 WNW 0.0 0.0
05:30 -4.1 92.0 1027.2 0.0 WNW 0.0 0.0
05:35 -4.1 93.0 1027.2 0.0 WNW 0.0 0.0
05:40 -4.0 93.0 1027.2 0.0 WNW 0.0 0.0
05:45 -4.0 93.0 1027.2 0.0 WNW 0.0 0.0
05:50 -3.9 93.0 1027.2 0.0 WNW 0.0 0.0
05:55 -4.0 93.0 1027.2 0.0 WNW 0.0 0.0
06:00 -4.1 93.0 1027.2 0.0 WNW 0.0 0.0
06:05 -4.1 93.0 1027.2 0.0 WNW 0.0 0.0
06:10 -4.2 93.0 1027.1 0.0 WNW 0.0 0.0
06:15 -4.2 93.0 1027.2 0.0 WNW 0.0 0.0
06:20 -4.2 93.0 1027.2 0.0 WNW 0.0 0.0
06:25 -4.3 93.0 1027.1 0.0 WNW 0.0 0.0
06:30 -4.3 92.0 1027.2 0.0 WNW 0.0 0.0
06:35 -4.3 93.0 1027.2 0.0 WNW 0.0 0.0
06:40 -4.3 93.0 1027.2 0.0 WNW 0.0 0.0
06:45 -4.4 93.0 1027.2 0.0 WNW 0.0 0.0
06:50 -4.4 93.0 1027.2 0.0 WNW 0.0 0.0
06:55 -4.4 93.0 1027.2 0.0 WNW 0.0 0.0
07:00 -4.4 93.0 1027.2 0.0 WNW 0.0 0.0
07:05 -4.4 93.0 1027.2 0.0 WNW 0.0 0.0
07:10 -4.4 93.0 1027.2 0.0 WNW 0.0 0.0
07:15 -4.4 93.0 1027.2 0.0 WNW 0.0 0.0
07:20 -4.3 93.0 1027.3 0.0 WNW 0.0 0.0
07:25 -4.3 93.0 1027.3 0.0 WNW 0.0 0.0
07:30 -4.2 93.0 1027.4 0.0 WNW 0.0 0.0
07:35 -4.2 93.0 1027.3 0.0 WNW 0.0 0.0
07:40 -4.1 93.0 1027.4 0.0 WNW 0.0 0.0
07:45 -4.0 93.0 1027.3 0.0 WNW 0.0 0.0
07:50 -3.8 94.0 1027.3 0.0 N 0.0 0.0
07:55 -3.6 94.0 1027.3 0.0 N 0.0 0.0
08:00 -3.3 94.0 1027.4 0.0 N 0.0 0.0
08:05 -3.3 94.0 1027.4 0.0 N 0.0 0.0
08:10 -2.8 94.0 1027.4 0.0 N 0.0 0.0
08:15 -2.4 94.0 1027.3 0.0 N 0.0 0.0
08:20 -2.0 94.0 1027.3 0.0 N 0.0 0.0
08:25 -1.5 95.0 1027.3 0.0 N 0.0 0.0
08:30 -1.2 95.0 1027.4 0.0 N 0.0 0.0
08:35 -0.9 94.0 1027.4 0.0 N 0.0 0.0
08:40 -0.6 94.0 1027.4 0.0 WNW 0.0 0.0
08:45 -0.3 95.0 1027.5 0.0 WNW 0.0 0.2
08:50 0.0 95.0 1027.5 0.0 WNW 0.0 0.0
08:55 0.2 94.0 1027.4 0.0 WNW 0.0 0.0
09:00 0.5 94.0 1027.4 0.0 WNW 0.0 0.0
09:05 0.5 94.0 1027.4 0.0 WNW 0.0 0.0
09:10 1.3 95.0 1027.4 0.0 N 0.0 0.0
09:15 1.7 95.0 1027.4 0.0 N 0.0 0.0
09:20 2.2 95.0 1027.4 0.0 N 0.0 0.0
09:25 2.7 95.0 1027.3 0.0 N 0.0 0.0
Máxima 14.2 95.0 1029.0 0.0 N 0.0 0.2
Mínima -4.4 91.0 1027.1
Total 0.2